This is the latest recevied weather packets stored in our database for station/object KO4WIL-13. If no packets are shown the sender has not sent any weather packets the latest 1 day(s).
| Time | Temp. | Humidity | Pressure | Rain* | Wind** | Luminosity | Snow |
|---|---|---|---|---|---|---|---|
| 1778051372 | 16.67° C | 76% | 961.9 hPa | 0 mm | 0 m/s | - | - |
| 1778051070 | 16.67° C | 70% | 962 hPa | 0 mm | 0 m/s | - | - |
| 1778050768 | 16.67° C | 74% | 962 hPa | 0 mm | 0 m/s | - | - |
| 1778050466 | 16.67° C | 69% | 962 hPa | 0 mm | 0 m/s | - | - |
| 1778050164 | 16.11° C | 70% | 962.1 hPa | 0 mm | 0 m/s | - | - |
| 1778049862 | 16.11° C | 72% | 962 hPa | 0 mm | 0 m/s | - | - |
| 1778049560 | 16.11° C | 73% | 962.3 hPa | 0 mm | 0 m/s | - | - |
| 1778049258 | 16.11° C | 74% | 962.3 hPa | 0 mm | 0 m/s | - | - |
| 1778048956 | 16.67° C | 78% | 962.3 hPa | 0 mm | 0 m/s | - | - |
| 1778048654 | 16.67° C | 70% | 962.5 hPa | 0.25 mm | 0 m/s | - | - |
| 1778048352 | 16.67° C | 72% | 962.7 hPa | 0.25 mm | 0 m/s | - | - |
| 1778048050 | 16.67° C | 70% | 962.6 hPa | 0.25 mm | 0 m/s | - | - |
| 1778047748 | 16.67° C | 72% | 962.8 hPa | 0 mm | 0 m/s | - | - |
| 1778047445 | 16.67° C | 72% | 963 hPa | 0 mm | 0 m/s | - | - |
| 1778047143 | 16.67° C | 71% | 963.1 hPa | 0 mm | 0 m/s | - | - |
| 1778046841 | 16.67° C | 72% | 963.5 hPa | 0 mm | 0 m/s | - | - |
| 1778046540 | 16.67° C | 72% | 963.1 hPa | 0 mm | 0 m/s | - | - |
| 1778046238 | 16.67° C | 69% | 963.1 hPa | 0 mm | 0 m/s | - | - |
| 1778045936 | 17.22° C | 69% | 963 hPa | 0 mm | 0 m/s | - | - |
| 1778045637 | 17.22° C | 70% | 963.1 hPa | 0 mm | 0 m/s | - | - |
| 1778045331 | 17.22° C | 70% | 963.3 hPa | 0 mm | 0 m/s | - | - |
| 1778045029 | 17.22° C | 67% | 963.3 hPa | 0 mm | 0 m/s | - | - |
| 1778044727 | 17.22° C | 70% | 963.5 hPa | 0 mm | 0 m/s | - | - |
| 1778044425 | 17.78° C | 67% | 963.3 hPa | 0 mm | 0 m/s | - | - |
| 1778044122 | 17.78° C | 66% | 963.1 hPa | 0 mm | 0 m/s | - | - |
* Rain latest hour (hover to see other rain measurements)
** Current wind speed in m/s (hover to see current wind gust speed)